• In Portugal
  • List of Countries
  • For 7 days
  • Water Temperature
  • Satellite Maps
  • Weather Map
  • Weather Widgets
  • user-avatar
    Login

    Hourly Weather Zhmerynka

    Today, 20 September, Thursday

    Time Temperature Precipitation Wind Pressure Humidity
    00:00 +18°C° 0 mm 1 mps 738 mmHg 63%
    01:00 +16°C° 0 mm 1 mps 738 mmHg 64%
    02:00 +16°C° 0 mm 2 mps 738 mmHg 62%
    03:00 +15°C° 0 mm 1 mps 738 mmHg 63%
    04:00 +15°C° 0 mm 1 mps 738 mmHg 63%
    05:00 +15°C° 0 mm 1 mps 738 mmHg 64%
    06:00 +16°C° 0 mm 2 mps 738 mmHg 62%
    07:00 +17°C° 0 mm 2 mps 738 mmHg 60%
    08:00 +18°C° 0 mm 2 mps 739 mmHg 56%
    09:00 +20°C° 0 mm 2 mps 739 mmHg 51%
    10:00 +23°C° 0 mm 2 mps 739 mmHg 46%
    11:00 +25°C° 0 mm 3 mps 739 mmHg 41%
    12:00 +26°C° 0 mm 2 mps 739 mmHg 39%
    13:00 +26°C° 0 mm 2 mps 739 mmHg 37%
    14:00 +27°C° 0 mm 2 mps 738 mmHg 35%
    15:00 +27°C° 0 mm 1 mps 738 mmHg 38%
    16:00 +26°C° 0 mm 1 mps 738 mmHg 41%
    17:00 +25°C° 0 mm 1 mps 738 mmHg 44%
    18:00 +23°C° 0 mm 1 mps 738 mmHg 46%
    19:00 +22°C° 0 mm 1 mps 738 mmHg 48%
    20:00 +20°C° 0 mm 1 mps 737 mmHg 51%
    21:00 +19°C° 0 mm 1 mps 737 mmHg 52%
    22:00 +19°C° 0 mm 1 mps 737 mmHg 53%
    23:00 +18°C° 0 mm 1 mps 737 mmHg 54%

    Tomorrow, 21 September, Friday

    Time Temperature Precipitation Wind Pressure Humidity
    00:00 +18°C° 0 mm 1 mps 737 mmHg 54%
    01:00 +16°C° 0 mm 1 mps 737 mmHg 55%
    02:00 +16°C° 0 mm 1 mps 737 mmHg 56%
    03:00 +16°C° 0 mm 1 mps 737 mmHg 56%
    04:00 +15°C° 0 mm 1 mps 737 mmHg 57%
    05:00 +15°C° 0 mm 1 mps 737 mmHg 57%
    06:00 +16°C° 0 mm 1 mps 737 mmHg 56%
    07:00 +19°C° 0 mm 1 mps 737 mmHg 54%
    08:00 +20°C° 0 mm 1 mps 738 mmHg 53%
    09:00 +21°C° 0 mm 2 mps 738 mmHg 48%
    10:00 +24°C° 0 mm 3 mps 738 mmHg 43%
    11:00 +26°C° 0 mm 3 mps 738 mmHg 38%
    12:00 +26°C° 0 mm 3 mps 737 mmHg 36%
    13:00 +27°C° 0 mm 3 mps 737 mmHg 35%
    14:00 +28°C° 0 mm 3 mps 737 mmHg 33%
    15:00 +27°C° 0 mm 3 mps 736 mmHg 37%
    16:00 +26°C° 0 mm 3 mps 736 mmHg 40%
    17:00 +25°C° 0 mm 2 mps 736 mmHg 44%
    18:00 +24°C° 0 mm 3 mps 736 mmHg 45%
    19:00 +21°C° 0 mm 3 mps 735 mmHg 47%
    20:00 +19°C° 0 mm 3 mps 735 mmHg 49%
    21:00 +19°C° 0 mm 3 mps 735 mmHg 49%
    22:00 +18°C° 0 mm 3 mps 735 mmHg 50%
    23:00 +18°C° 0 mm 3 mps 735 mmHg 50%

    Day after tomorrow, 22 September, Saturday

    Time Temperature Precipitation Wind Pressure Humidity
    00:00 +17°C° 0 mm 3 mps 735 mmHg 51%
    01:00 +17°C° 0 mm 3 mps 735 mmHg 51%
    02:00 +17°C° 0 mm 3 mps 735 mmHg 52%
    03:00 +16°C° 0 mm 3 mps 734 mmHg 53%
    04:00 +16°C° 0 mm 3 mps 734 mmHg 54%
    05:00 +14°C° 0 mm 3 mps 734 mmHg 56%
    06:00 +17°C° 0 mm 3 mps 734 mmHg 55%
    07:00 +18°C° 0 mm 3 mps 734 mmHg 54%
    08:00 +19°C° 0 mm 3 mps 734 mmHg 54%
    09:00 +21°C° 0 mm 3 mps 734 mmHg 50%
    10:00 +23°C° 0 mm 4 mps 734 mmHg 45%
    11:00 +26°C° 0 mm 4 mps 734 mmHg 41%
    12:00 +26°C° 0 mm 4 mps 734 mmHg 40%
    13:00 +27°C° 0 mm 4 mps 734 mmHg 39%
    14:00 +27°C° 0 mm 4 mps 734 mmHg 38%
    15:00 +26°C° 0 mm 4 mps 734 mmHg 45%
    16:00 +23°C° 0 mm 4 mps 733 mmHg 51%
    17:00 +22°C° 0 mm 4 mps 733 mmHg 57%
    18:00 +19°C° 0.2 mm 5 mps 733 mmHg 63%
    19:00 +15°C° 0.2 mm 6 mps 734 mmHg 68%
    20:00 +12°C° 0.2 mm 8 mps 734 mmHg 73%
    21:00 +10°C° 1.8 mm 7 mps 734 mmHg 78%
    22:00 +9°C° 1.8 mm 6 mps 735 mmHg 83%
    23:00 +8°C° 1.8 mm 6 mps 735 mmHg 87%

    23 September, Sunday

    Time Temperature Precipitation Wind Pressure Humidity
    00:00 +7°C° 0.6 mm 5 mps 736 mmHg 88%
    01:00 +7°C° 0.6 mm 4 mps 736 mmHg 89%
    02:00 +7°C° 0.6 mm 4 mps 736 mmHg 89%
    03:00 +7°C° 0 mm 3 mps 736 mmHg 90%
    04:00 +7°C° 0 mm 3 mps 736 mmHg 90%
    05:00 +7°C° 0 mm 3 mps 736 mmHg 91%
    06:00 +8°C° 0 mm 3 mps 736 mmHg 87%
    07:00 +8°C° 0 mm 4 mps 736 mmHg 82%
    08:00 +10°C° 0 mm 4 mps 737 mmHg 77%
    09:00 +12°C° 0 mm 5 mps 737 mmHg 69%
    10:00 +14°C° 0 mm 5 mps 737 mmHg 60%
    11:00 +15°C° 0 mm 6 mps 737 mmHg 51%
    12:00 +16°C° 0 mm 6 mps 737 mmHg 49%
    13:00 +16°C° 0 mm 6 mps 737 mmHg 46%
    14:00 +17°C° 0 mm 6 mps 737 mmHg 44%
    15:00 +16°C° 0 mm 5 mps 736 mmHg 47%
    16:00 +17°C° 0 mm 4 mps 736 mmHg 50%
    17:00 +16°C° 0 mm 3 mps 736 mmHg 53%
    18:00 +14°C° 0 mm 3 mps 736 mmHg 56%
    19:00 +13°C° 0 mm 2 mps 736 mmHg 59%
    20:00 +12°C° 0 mm 2 mps 736 mmHg 63%
    21:00 +12°C° 0 mm 2 mps 736 mmHg 63%
    22:00 +12°C° 0 mm 2 mps 736 mmHg 64%
    23:00 +10°C° 0 mm 2 mps 736 mmHg 65%

    24 September, Monday

    Time Temperature Precipitation Wind Pressure Humidity
    00:00 +11°C° 0 mm 3 mps 735 mmHg 64%
    01:00 +11°C° 0 mm 3 mps 734 mmHg 63%
    02:00 +11°C° 0 mm 4 mps 734 mmHg 62%
    03:00 +11°C° 0 mm 4 mps 733 mmHg 59%
    04:00 +12°C° 0 mm 5 mps 732 mmHg 55%
    05:00 +11°C° 0 mm 6 mps 731 mmHg 52%
    06:00 +12°C° 0.1 mm 7 mps 729 mmHg 53%
    07:00 +12°C° 0.1 mm 8 mps 728 mmHg 54%
    08:00 +12°C° 0.1 mm 9 mps 727 mmHg 55%
    09:00 +15°C° 0.1 mm 9 mps 726 mmHg 55%
    10:00 +17°C° 0.1 mm 9 mps 726 mmHg 56%
    11:00 +18°C° 0.1 mm 9 mps 725 mmHg 57%
    12:00 +18°C° 0.2 mm 9 mps 725 mmHg 60%
    13:00 +18°C° 0.2 mm 9 mps 724 mmHg 62%
    14:00 +19°C° 0.2 mm 9 mps 724 mmHg 65%
    15:00 +16°C° 0.2 mm 10 mps 725 mmHg 63%
    16:00 +13°C° 0.2 mm 11 mps 726 mmHg 61%
    17:00 +10°C° 0.2 mm 12 mps 727 mmHg 59%
    18:00 +9°C° 0 mm 11 mps 727 mmHg 59%
    19:00 +9°C° 0 mm 11 mps 728 mmHg 58%
    20:00 +8°C° 0 mm 10 mps 729 mmHg 58%
    21:00 +8°C° 0 mm 10 mps 729 mmHg 60%
    22:00 +8°C° 0 mm 9 mps 730 mmHg 61%
    23:00 +7°C° 0 mm 9 mps 730 mmHg 63%

    25 September, Tuesday

    Time Temperature Precipitation Wind Pressure Humidity
    00:00 +7°C° 0 mm 9 mps 731 mmHg 65%
    01:00 +6°C° 0 mm 9 mps 731 mmHg 68%
    02:00 +6°C° 0 mm 8 mps 732 mmHg 70%
    03:00 +6°C° 0 mm 8 mps 733 mmHg 69%
    04:00 +6°C° 0 mm 9 mps 733 mmHg 67%
    05:00 +6°C° 0 mm 9 mps 734 mmHg 65%
    06:00 +6°C° 0 mm 9 mps 734 mmHg 65%
    07:00 +6°C° 0 mm 10 mps 735 mmHg 65%
    08:00 +6°C° 0 mm 10 mps 735 mmHg 64%
    09:00 +6°C° 0 mm 10 mps 736 mmHg 61%
    10:00 +7°C° 0 mm 10 mps 736 mmHg 58%
    11:00 +7°C° 0 mm 10 mps 737 mmHg 55%
    12:00 +8°C° 0 mm 10 mps 737 mmHg 54%
    13:00 +8°C° 0 mm 10 mps 737 mmHg 52%
    14:00 +8°C° 0 mm 10 mps 737 mmHg 50%
    15:00 +8°C° 0.1 mm 9 mps 738 mmHg 51%
    16:00 +9°C° 0.1 mm 8 mps 738 mmHg 52%
    17:00 +7°C° 0.1 mm 8 mps 739 mmHg 53%
    18:00 +6°C° 0 mm 7 mps 739 mmHg 55%
    19:00 +5°C° 0 mm 6 mps 739 mmHg 57%
    20:00 +6°C° 0 mm 5 mps 740 mmHg 59%
    21:00 +5°C° 0 mm 5 mps 740 mmHg 62%
    22:00 +5°C° 0 mm 5 mps 741 mmHg 64%
    23:00 +5°C° 0 mm 5 mps 741 mmHg 66%
    Show more